Showing default

SPOT 7, 40053

Orbit data source: Space-Track

SPOT 7, 40053 is a payload satellite owned by CNES (AZ) in SSO that was launched on Mon, 30 Jun 2014 UTC via a PSLV launch vehicle from the Sirharikota (SRI). Payload-class satellites include a variety of spacecraft equipped with specific instruments for various scientific and technological missions. These include communications satellites like Starlink; space stations such as the ISS; scientific satellites like the Hubble; Earth observation satellites from companies like Planet Labs, Umbra, and HawkEye 360; GPS; miniature CubeSats for education and research; and military/defense satellites.

Loading next visibility...
Identifier
40053, 2014-034A
Orbit
SSO
Country
Flag of UnknownUnknown / AZER
Related business
Manufacturer
Airbus (UK)
Mission
Operational Commercial Imaging
Bus & Motor
ASTROSAT-500L, AOCS
Mass
712 kg wet, ~712 kg dry
Launch date (UTC)
2014-06-30 (11 years ago)
Launch vehicle
PSLV
Launch site
Sirharikota (SRI)
Object type
Payload
Rocket body
Debris
Shape & HBR
Hex Cyl + 3 Pan, 3.2 m
Radar Cross Section
9.390 m², Large (>1 m²)

Expand to show TLE details & history
Last TLE update: 9 hours ago

TLE from 9 hours ago
0 SPOT 7
1 40053U 14034A   25300.98285409  .00000799  00000-0  17354-3 0  9997
2 40053  98.0965   4.1008 0001118 100.7764 259.3562 14.60644267603236
Epoch: 2025-10-27T23:35Z
TLE epoch observation values (Epoch: 2025-10-27T23:35:18.593Z)
Latitude
-0.00008°
Longitude
-26.30354°
Altitude
694.23 km
Speed
7.509 km/s
True Right ascension
00h 16m 24s
True Declination
0° 00' 00"
Sunlit
Object was in full shadow at epoch
Visualization orbit readout
Latitude
Unknown
Longitude
Unknown
Altitude
Unknown
Speed
Unknown
Apparent Right ascension
Unknown
Apparent Declination
Unknown
Sunlit
N/A
Visualization observer readout
Local Sidereal Time
04:01:10
Azimuth
Unknown
Elevation
Unknown
Doppler factor
Unknown
Orbital elements
Apogee altitude
688.96 km
Perigee altitude
687.38 km
Semi-major axis
7,066.307 km
Eccentricity
0.00011
Inclination
98.0965°
RAAN
4.1008°
Arg. of periapsis
100.7764°
True anomaly
259.34361°
Mean anomaly
259.3562°
Eccentric anomaly
259.3499°
Mean motion
3.65388 °/min
Orbital period
98.53 mins
BSTAR
0.00017354
Loading maneuver chart data...
Computing Atmospheric mass density...
Loading historical data...
Loading historical data...
Loading historical data...
Loading historical data...
Loading historical data...
Loading historical data...
Loading historical data...
Other satellites on launch #34 in the year 2014 (2014-06-30 UTC)

Documentation

Showing up to 5 results
|